Flag for New Zealand Weather past 2 weeks in Wellington, New Zealand

Now
57 °F

Broken clouds.


Feels Like: 53 °F
Forecast: 51 / 56 °F
Wind: 17 mph from North

Location: Wellington Airport

Current Time: Sep 18, 2014 at 1:47:37 PM

Latest Report: Sep 18, 2014 at 1:00 PM


Visibility: N/A

Pressure: 29.89 "Hg

Humidity: 63%

Dew point: 45 °F

Location of WellingtonLocation

Historic Weather in Wellington — Graph

°F

Wellington temperature yesterday

Maximum temperature yesterday: 57 °F (at 9:00 AM)
Minimum temperature yesterday: 46 °F (at 5:00 AM)
Average temperature yesterday: 53 °F

Past Weeks' High & Low Weather Summary

 TemperatureHumidityPressure
High66 °F (Sep 3, 1:30 PM)100% (Sep 6, 4:30 AM)30.39 "Hg (Sep 6, 4:30 AM)
Low45 °F (Sep 15, 2:00 AM)48% (Sep 17, 9:30 AM)29.53 "Hg (Sep 16, 3:30 AM)
Average54 °F78%29.95 "Hg
* Reported Sep 3 12:00 Noon — Sep 18 12:30 PM, Wellington, Weather by CustomWeather, © 2014

Note: Actual official high and low records may vary slightly from our data, if they occured in-between our weather recording intervals... More about our weather records

Advertising

Wellington weather history for previous 24 hours

 ConditionsComfort  
Time TempWeatherWind HumidityBarometerVisibility
12:30 PM
Sep 18
57 °FBroken clouds.20 mph67%29.89 "HgN/A
12:00 PM57 °FPassing clouds.15 mph67%29.92 "HgN/A
11:30 AM59 °FPassing clouds.17 mph63%29.92 "HgN/A
11:00 AM57 °FPartly sunny.20 mph67%29.92 "HgN/A
10:30 AM57 °FPartly sunny.17 mph67%29.95 "HgN/A
10:00 AM55 °FPassing clouds.12 mph72%29.95 "HgN/A
9:30 AM55 °FCool.15 mph72%29.95 "HgN/A
9:00 AM54 °FCool.10 mph72%29.95 "HgN/A
8:30 AM52 °FPassing clouds.12 mph72%29.95 "HgN/A
8:00 AM50 °FPartly sunny.8 mph76%29.95 "HgN/A
7:30 AM48 °FPartly sunny.8 mph82%29.95 "HgN/A
7:00 AM48 °FMore clouds than sun.8 mph82%29.98 "HgN/A
6:30 AM48 °FOvercast.7 mph76%29.98 "HgN/A
6:00 AM48 °FPartly sunny.6 mph76%29.95 "HgN/A
5:30 AM48 °FMostly cloudy.6 mph82%29.95 "HgN/A
5:00 AM48 °FOvercast.6 mph82%29.95 "HgN/A
4:30 AM48 °FPassing clouds.5 mph82%29.95 "HgN/A
4:00 AM48 °FOvercast.3 mph82%29.95 "HgN/A
3:30 AM48 °FMostly cloudy.5 mph82%29.95 "HgN/A
3:00 AM50 °FOvercast.2 mph76%29.95 "HgN/A
2:30 AM50 °FOvercast.3 mph76%29.95 "HgN/A
2:00 AM50 °FOvercast.5 mph76%29.95 "HgN/A
1:30 AM50 °FOvercast.5 mph76%29.95 "HgN/A
1:00 AM50 °FPassing clouds.7 mph76%29.95 "HgN/A
12:30 AM50 °FPassing clouds.8 mph76%29.95 "HgN/A
12:00 AM50 °FPartly cloudy.8 mph76%29.95 "HgN/A
11:30 PM
Sep 17
50 °FPassing clouds.7 mph76%29.95 "HgN/A
11:00 PM52 °FPassing clouds.8 mph77%29.95 "HgN/A
10:30 PM52 °FMostly cloudy.8 mph77%29.95 "HgN/A
10:00 PM52 °FPassing clouds.10 mph77%29.95 "HgN/A
9:30 PM52 °FPassing clouds.14 mph82%29.95 "HgN/A
9:00 PM52 °FOvercast.13 mph82%29.95 "HgN/A
8:30 PM52 °FPassing clouds.13 mph77%29.95 "HgN/A
8:00 PM52 °FOvercast.10 mph77%29.95 "HgN/A
7:30 PM54 °FPartly cloudy.15 mph77%29.95 "HgN/A
7:00 PM54 °FPartly cloudy.13 mph72%29.92 "HgN/A
6:30 PM52 °FPassing clouds.12 mph72%29.92 "HgN/A
6:00 PM54 °FOvercast.12 mph67%29.89 "HgN/A
5:30 PM52 °FOvercast.10 mph72%29.89 "HgN/A
5:00 PM54 °FPartly sunny.12 mph67%29.86 "HgN/A
4:30 PM54 °FPartly sunny.10 mph67%29.86 "HgN/A
4:00 PM54 °FCool.9 mph67%29.83 "HgN/A
3:30 PM54 °FScattered clouds.13 mph67%29.83 "HgN/A
3:00 PM55 °FPassing clouds.10 mph63%29.83 "HgN/A
2:30 PM55 °FScattered clouds.14 mph59%29.83 "HgN/A
2:00 PM55 °FPartly sunny.12 mph67%29.80 "HgN/A
1:30 PM55 °FOvercast.14 mph72%29.80 "HgN/A
1:00 PM55 °FCool.15 mph67%29.80 "HgN/A
Weather by CustomWeather, © 2014

See weather overviewHow to use our weather pages